Starlink 3591

operational
NORAD ID: 51870 Int'l Des: 2022-022 Owner: SPXS Country: US Constellation: starlink
LEOCIRCULAR

Über Starlink 3591

Beschreibung wird geladen...

Live-Position

3D-Globus wird geladen...

Nächste Überflüge

Höhenverlauf

Altitude vs Time

uPlot chart will show altitude changes over time

Zweizeiliger Elementsatz

1 51870U 22022U 25259.21533448 .00000608 00000-0 56266-4 0 9995
2 51870 53.2172 72.3675 0001293 90.0803 270.0338 15.08843576196824
Epoch: 16. Sept. 2025 • Age: 6 hours

Aktueller Status

Höhe 540.2 km
Geschwindigkeit 7.60 km/s
Subsatellitenpunkt 24.65°N, 79.55°W
Startdatum 3. März 2022
Alter 3.5 years
Typ internet

Technische Details

Klassifizierung Payload
Masse 297.00 kg
Trockenmasse 275.00 kg
Gesamtmasse 297.00 kg
Länge 0.20 m
Durchmesser 2.80 m
Spannweite 9.00 m
Form Box + pan
Hersteller SPXS
Bus-Typ Starlink
Phasenstatus In Orbit
Besitzer/Staat SPXS/US

Große Konstellationen

Loading constellations...